星链-30616 (STARLINK-30616 )

导读 | 豆包AI

STARLINK-30616是美国星链互联网项目卫星,于北京时间2023年10月21日发射入轨,归属于美国太空探索技术公司(SpaceX)。该卫星是星链星座组网建设的组成部分,承担低轨卫星互联网的全球覆盖、信号传输任务,助力星链完成全球网络服务布局。

基本信息
目录编号:
58105
目录名称:
STARLINK-30616
国际标识:
2023-161J
轨道中心:
EARTH
卫星名称:
星链-30616
卫星全名:
星链-30616 (STARLINK-30616 )
卫星状态:
在轨 (已飞行922 天)
发射日期:
2023-10-21 UTC
国别 :
美国 (US)
星等 :
--
轨道信息
数据来源 国际轨道数据 AOE轨道数据
星历时间 2026-04-30T03:55:34+0800
22小时前
查看轨道信息
2026-04-25T23:00:00+0800
5天前
查看轨道信息
半长轴 6853.393km 6853.32km
偏心率 0.000127 0.0000881
轨道倾角 53.161° 53.161°
近地点辐角 83.944° 105.869°
升交点赤经 274.886° 294.422°
平近点角 276.171° 115.929°
近地点 474.385km 474.579km
远地点 476.127km 475.787km
周期 94.106分钟 94.105分钟
每日圈数 15.301866 15.30211
详细信息
固有亮度:
5
最大亮度:
0.3
卫星平台:
Starlink v2.0 mini
覆盖范围:
全球
运营商:
太空探索技术公司
运营商所在国:
美国
制造商(研发单位):
太空探索技术公司
制造商所在国:
美国
使用方式:
暂无
卫星简介
星链(Starlink)计划是由太空探索技术公司(SpaceX)提出的一个巨型低轨卫星互联网星座项目,计划在2019年至2024年间在太空搭建由约1.2万颗卫星组成的“星链”网络,其中1584颗将部署在地球上空550千米处的近地轨道,并从2020年开始工作。该卫星仍在工作。
2D轨道图
3D轨道图
轨道高度分析图
轨道倾角分析图
轨道综合分析图
查看轨道综合分析图